Tracking 17141 objects as of 5-July-2015
HD Live streaming from Space Station

MOLNIYA 3-51

Track MOLNIYA 3-51 now!
MOLNIYA 3-51 is classified as:


NORAD ID: 26867
Int'l Code: 2001-030A
Perigee: 280.9 km
Apogee: 32,587.4 km
Inclination: 62.5 °
Period: 571.2 minutes
Semi major axis: 22805 km
RCS: 12.5893 m2 (large)
Launch date: July 20, 2001
Source: Commonwealth of Independent States (former USSR) (CIS)

Can carry satellite broadcast television as well as military and manned voice communcations; highly elliptical orbit developed for northern latitudes beyond reach of geostationary satellites.
Your satellite tracking list
Your tracking list is empty





NASA's NSSDC Master Catalog

Two Line Element Set (TLE):
1 26867U 01030A   15186.36525730  .00001830  00000-0  57360-3 0  9991
2 26867 062.4663 217.4235 7083169 261.7759 031.7063 02.52088735104682

Source of the keplerian elements: AFSPC

N2YO: 263